Zhongxing 3B

operational
NORAD ID: 64062 Int'l Des: 2025-106 Owner: ZLZB Country: CN
HEOCIRCULARGSOGEO

Über Zhongxing 3B

Beschreibung wird geladen...

Live-Position

3D-Globus wird geladen...

Nächste Überflüge

Höhenverlauf

Altitude vs Time

uPlot chart will show altitude changes over time

Zweizeiliger Elementsatz

1 64062U 25106A 26061.85114212 -.00000062 00000-0 00000+0 0 9999
2 64062 0.0204 121.9403 0002056 194.4224 317.9578 1.00270922 2998
Epoch: 2. März 2026 • Age: 40 hours

Aktueller Status

Höhe 35788.9 km
Geschwindigkeit 3.07 km/s
Subsatellitenpunkt 0.05°N, 167.28°E
Startdatum 20. Mai 2025
Alter 0.7 years
Typ other

Technische Details

Klassifizierung Payload
Masse 5000.00 kg
Trockenmasse 2500.00 kg
Gesamtmasse 5000.00 kg
Länge 5.00 m
Durchmesser 2.50 m
Spannweite 30.00 m
Form Box + 2 Pan
Hersteller SISE
Bus-Typ FY-4
Phasenstatus In Orbit
Besitzer/Staat ZLZB/CN

Große Konstellationen

Loading constellations...